Location: Baix
(44.7118°N, 4.7648°E)
Time: 02:26:08
(UTC+00:00)

SL-16 R/B - Pass Details

Date: 07 August 2020
Orbit: 840 x 849 km, 71.0° (Epoch: 18 September)

Event Time Altitude Azimuth Distance (km) Brightness Sun altitude
Rises 01:59:33 0° 334° (NNW) 3,423 5.8 -21.9°
Reaches altitude 10° 02:02:01 10° 335° (NNW) 2,483 5.0 -21.6°
Maximum altitude 02:07:44 87° 64° (ENE) 856 2.2 -21.1°
Enters shadow 02:13:03 12° 155° (SSE) 2,329 4.2 -20.5°
